Powrót do katalogu

ARIANE 2 DEB

LostGTO
NORAD 33549·DEBRIS·🇫🇷 France

Wystrzelony Jan 27, 1989 z Guiana Space Centre

Loading…

TLE

NieaktualneSource: Space-Track

Epoka: May 31, 2019, 01:38 UTC

1 33549U 89006AR  19151.06814446  .00000073  00000-0  73160-2 0  9996
2 33549   7.0140 195.3239 7090333 254.3176  35.9651  2.25257108111771

Śledź ARIANE 2 DEB w czasie rzeczywistym z AllMySat

Download on the App Store